Location: Davayat
(45.9471°N, 3.1105°E)
Time: 14:21:30
(UTC+00:00)

Spot 2 - Pass Details

Date: 01 December 2020
Orbit: 569 x 774 km, 98.7° (Epoch: 27 January)

Event Time Altitude Azimuth Distance (km) Brightness Sun altitude
Rises 16:25:49 0° 160° (SSE) 3,023 7.7 -4.1°
Reaches altitude 10° 16:27:59 10° 159° (SSE) 2,143 6.9 -4.5°
Maximum altitude 16:32:42 78° 74° (ENE) 743 4.4 -5.2°
Drops below altitude 10° 16:37:42 10° 348° (NNW) 2,276 6.8 -6.0°
Sets 16:40:04 0° 347° (NNW) 3,226 7.6 -6.3°
